Weather History for Lihue, HI

Change the Weather History Date:

Wednesday, May 2, 2012

  Actual Average Record
Temperature  
Mean Temperature 76 °F 75 °F  
Max Temperature 80 °F 80 °F 85 °F (1971)
Min Temperature 71 °F 69 °F 59 °F (1989)
Degree Days  
Heating Degree Days 0 0  
Month to date heating degree days 0 0  
Since 1 July heating degree days 0 0  
Cooling Degree Days 11 10  
Month to date cooling degree days 23 20  
Year to date cooling degree days 1077 924  
Growing Degree Days 25 (Base 50)    
Moisture  
Dew Point 66 °F    
Average Humidity 73    
Maximum Humidity 84    
Minimum Humidity 62    
Precipitation  
Precipitation 0.03 in 0.08 in 2.05 in (1970)
Month to date precipitation 0.04 0.16  
Year to date precipitation 31.79 13.93  
Snow  
Snow 0.00 in - - ()
Month to date snowfall 0.0  
Since 1 July snowfall 0.0  
Snow Depth 0.00 in    
Sea Level Pressure  
Sea Level Pressure 30.11 in    
Wind  
Wind Speed 15 mph (ENE)    
Max Wind Speed 24 mph    
Max Gust Speed 29 mph    
Visibility 9 miles    
Events Rain    
T = Trace of Precipitation, MM = Missing Value Source: NWS Daily Summary

Daily Weather History Graph

Daily Weather History Graph

Search for Another Location

Airport:

Trip Planner

Search our weather history database for the weather conditions in past years. The results will help you decide how hot, cold, wet, or windy it might be!

Date:

Astronomy

May. 02, 2012 Rise Set
Actual Time 6:04 AM HST 7:04 PM HST
Civil Twilight 5:41 AM HST 7:27 PM HST
Nautical Twilight 5:13 AM HST 7:55 PM HST
Astronomical Twilight 4:45 AM HST 8:23 PM HST
Moon 3:52 PM HST (5/2) 3:14 AM HST (5/2)
Length of Visible Light 13h 46m
Length of Day
12h 59m
Waxing Gibbous, 85% of the Moon is Illuminated
May 2
Waxing Gibbous
May 5
Full
May 12
Last Quarter
May 20
New
May 28
First Quarter

Hourly Weather History & Observations

Time (HST) Temp. Dew Point Humidity Pressure Visibility Wind Dir Wind Speed Gust Speed Precip Events Conditions
12:53 AM 73.9 °F 64.9 °F 73% 30.13 in 10.0 mi ENE 11.5 mph - N/A   Partly Cloudy
1:53 AM 73.0 °F 64.9 °F 76% 30.12 in 10.0 mi NE 13.8 mph - N/A   Scattered Clouds
2:53 AM 73.0 °F 64.9 °F 76% 30.10 in 10.0 mi NE 18.4 mph - N/A   Scattered Clouds
3:53 AM 73.0 °F 66.0 °F 79% 30.10 in 10.0 mi NE 13.8 mph - N/A   Mostly Cloudy
4:10 AM 71.6 °F 66.2 °F 83% 30.11 in 8.0 mi NNE 19.6 mph - 0.00 in Rain Light Rain
4:40 AM 71.6 °F 66.2 °F 83% 30.10 in 10.0 mi ENE 17.3 mph - 0.00 in   Overcast
4:53 AM 72.0 °F 66.0 °F 81% 30.09 in 10.0 mi NE 15.0 mph - 0.00 in   Mostly Cloudy
5:53 AM 73.0 °F 66.0 °F 79% 30.10 in 10.0 mi NE 16.1 mph - N/A   Overcast
6:53 AM 73.0 °F 66.0 °F 79% 30.11 in 10.0 mi ENE 19.6 mph - 0.00 in   Mostly Cloudy
7:53 AM 75.0 °F 68.0 °F 79% 30.12 in 10.0 mi ENE 17.3 mph - N/A   Mostly Cloudy
8:05 AM 75.2 °F 66.2 °F 73% 30.13 in 10.0 mi ENE 18.4 mph - N/A   Mostly Cloudy
8:53 AM 77.0 °F 66.0 °F 69% 30.13 in 10.0 mi ENE 17.3 mph - N/A   Mostly Cloudy
9:00 AM 78.8 °F 66.2 °F 65% 30.13 in 10.0 mi ENE 16.1 mph - N/A   Partly Cloudy
9:05 AM 78.8 °F 66.2 °F 65% 30.14 in 10.0 mi ENE 18.4 mph - N/A   Mostly Cloudy
9:53 AM 78.1 °F 66.9 °F 68% 30.13 in 10.0 mi NE 15.0 mph - N/A   Mostly Cloudy
10:00 AM 78.8 °F 66.2 °F 65% 30.13 in 10.0 mi ENE 16.1 mph - N/A   Scattered Clouds
10:53 AM 78.1 °F 66.9 °F 68% 30.12 in 10.0 mi ENE 17.3 mph - N/A   Mostly Cloudy
11:06 AM 73.4 °F 69.8 °F 88% 30.12 in 10.0 mi East 16.1 mph - 0.00 in   Mostly Cloudy
11:17 AM 73.4 °F 69.8 °F 88% 30.12 in 2.0 mi ENE 24.2 mph 28.8 mph 0.01 in   Overcast
11:27 AM 71.6 °F 68.0 °F 88% 30.12 in 2.0 mi ENE 17.3 mph 27.6 mph 0.01 in Rain Light Rain
11:31 AM 71.6 °F 69.8 °F 94% 30.12 in 10.0 mi ENE 15.0 mph - 0.01 in   Overcast
11:53 AM 71.1 °F 66.9 °F 87% 30.12 in 2.5 mi East 10.4 mph 26.5 mph 0.01 in Rain Rain
11:54 AM 71.6 °F 66.2 °F 83% 30.12 in 2.5 mi East 10.4 mph 26.5 mph 0.01 in Rain Rain
11:55 AM 71.6 °F 68.0 °F 88% 30.12 in 2.5 mi ENE 10.4 mph 26.5 mph 0.02 in Rain Rain
12:03 PM 73.4 °F 71.6 °F 94% 30.11 in 10.0 mi ENE 10.4 mph - 0.02 in   Mostly Cloudy
12:53 PM 79.0 °F 66.9 °F 66% 30.09 in 10.0 mi East 13.8 mph - 0.02 in   Mostly Cloudy
1:53 PM 79.0 °F 64.9 °F 62% 30.07 in 10.0 mi ENE 12.7 mph - N/A   Partly Cloudy
2:53 PM 77.0 °F 66.0 °F 69% 30.06 in 10.0 mi NE 12.7 mph - N/A   Scattered Clouds
3:53 PM 79.0 °F 63.0 °F 58% 30.05 in 10.0 mi ENE 16.1 mph - N/A   Partly Cloudy
4:53 PM 78.1 °F 64.0 °F 62% 30.05 in 10.0 mi NE 15.0 mph - N/A   Scattered Clouds
5:53 PM 75.9 °F 64.0 °F 67% 30.06 in 10.0 mi ENE 13.8 mph - N/A   Scattered Clouds
6:53 PM 75.0 °F 63.0 °F 66% 30.08 in 10.0 mi ENE 15.0 mph - N/A   Overcast
7:53 PM 73.9 °F 64.9 °F 73% 30.09 in 10.0 mi NE 15.0 mph - N/A   Overcast
8:53 PM 73.9 °F 64.0 °F 71% 30.12 in 10.0 mi NE 16.1 mph - N/A   Partly Cloudy
9:53 PM 73.9 °F 63.0 °F 68% 30.13 in 10.0 mi ENE 17.3 mph - N/A   Clear
10:53 PM 73.9 °F 63.0 °F 68% 30.13 in 10.0 mi ENE 18.4 mph - N/A   Partly Cloudy
11:53 PM 73.9 °F 64.0 °F 71% 30.13 in 10.0 mi ENE 18.4 mph - N/A   Scattered Clouds